Weather History for KDDC - May, 2013

Change the Weather History Date:

Tuesday, May 28, 2013

  Actual Average (KGCK) Record (KGCK)
Temperature  
Mean Temperature 73 °F 67 °F  
Max Temperature 93 °F 80 °F 101 °F (1974)
Min Temperature 53 °F 54 °F 40 °F (1992)
Degree Days  
Heating Degree Days 0 2  
Month to date heating degree days 124  
Since 1 July heating degree days 5186  
Cooling Degree Days 8 4  
Month to date cooling degree days 63  
Year to date cooling degree days 75  
Growing Degree Days 23 (Base 50)    
Moisture  
Dew Point 54 °F    
Average Humidity 73    
Maximum Humidity 100    
Minimum Humidity 9    
Precipitation  
Precipitation 0.00 in 0.11 in 0.64 in (1975)
Month to date precipitation 2.55  
Year to date precipitation 6.61  
Sea Level Pressure  
Sea Level Pressure 29.61 in    
Wind  
Wind Speed 8 mph (NNW)    
Max Wind Speed 37 mph    
Max Gust Speed 51 mph    
Visibility 5 miles    
Events Fog , Rain , Thunderstorm    
T = Trace of Precipitation, MM = Missing Value Source: NWS Daily Summary

Daily Weather History Graph

Daily Weather History Graph

Search for Another Location

Airport or City:

Trip Planner

Search our weather history database for the weather conditions in past years. The results will help you decide how hot, cold, wet, or windy it might be!

Date:

Astronomy

May. 28, 2013 Rise Set
Actual Time 6:21 AM CDT 8:53 PM CDT
Civil Twilight 5:50 AM CDT 9:24 PM CDT
Nautical Twilight 5:13 AM CDT 10:01 PM CDT
Astronomical Twilight 4:31 AM CDT 10:44 PM CDT
Moon No Moon Rise 10:09 AM CDT (5/28)
Length of Visible Light 15h 33m
Length of Day
14h 32m
Waning Gibbous, 82% of the Moon is Illuminated
May 28
Waning Gibbous
May 31
Last Quarter
Jun 8
New
Jun 16
First Quarter
Jun 23
Full

Hourly Weather History & Observations

Time (CDT) Temp. Heat Index Dew Point Humidity Pressure Visibility Wind Dir Wind Speed Gust Speed Precip Events Conditions
12:52 AM 63.0 °F - 54.0 °F 72% 29.56 in 10.0 mi East 8.1 mph - N/A   Clear
1:52 AM 69.1 °F - 60.1 °F 73% 29.53 in 10.0 mi NE 9.2 mph - N/A   Clear
2:52 AM 63.0 °F - 59.0 °F 87% 29.52 in 9.0 mi NE 3.5 mph - N/A   Clear
3:52 AM 59.0 °F - 57.0 °F 93% 29.51 in 8.0 mi East 5.8 mph - N/A   Clear
4:52 AM 55.9 °F - 54.0 °F 93% 29.51 in 6.0 mi North 3.5 mph - N/A   Clear
5:52 AM 55.9 °F - 53.1 °F 90% 29.53 in 6.0 mi Variable 5.8 mph - N/A   Clear
5:55 AM 55.4 °F - 53.6 °F 94% 29.63 in 1.8 mi WNW 4.6 mph - N/A   Partly Cloudy
5:57 AM 53.6 °F - 51.8 °F 94% 29.63 in 1.0 mi NW 6.9 mph - N/A   Mist
6:02 AM 55.4 °F - 53.6 °F 94% 29.64 in 0.2 mi NNW 4.6 mph - N/A Fog Fog
6:17 AM 53.6 °F - 51.8 °F 94% 29.64 in 0.2 mi NW 8.1 mph - N/A Fog Fog
6:28 AM 55.4 °F - 53.6 °F 94% 29.65 in 1.0 mi NNW 5.8 mph - N/A   Mist
6:30 AM 55.4 °F - 53.6 °F 94% 29.65 in 1.5 mi NNW 5.8 mph - N/A   Scattered Clouds
6:36 AM 55.4 °F - 53.6 °F 94% 29.65 in 1.0 mi North 3.5 mph - N/A   Mist
6:42 AM 53.6 °F - 53.6 °F 100% 29.65 in 0.2 mi North 5.8 mph - N/A Fog Fog
6:50 AM 55.4 °F - 53.6 °F 94% 29.64 in 0.2 mi North 3.5 mph - N/A Fog Fog
6:52 AM 55.0 °F - 54.0 °F 96% 29.55 in 0.2 mi North 4.6 mph - N/A Fog Fog
7:00 AM 55.4 °F - 53.6 °F 94% 29.64 in 1.0 mi ENE 4.6 mph - N/A   Clear
7:10 AM 55.4 °F - 53.6 °F 94% 29.65 in 1.5 mi Calm Calm - N/A   Partly Cloudy
7:29 AM 57.2 °F - 55.4 °F 94% 29.65 in 2.5 mi Calm Calm - N/A   Partly Cloudy
7:36 AM 57.2 °F - 55.4 °F 94% 29.65 in 3.0 mi NW 4.6 mph - N/A   Partly Cloudy
7:47 AM 59.0 °F - 57.2 °F 94% 29.64 in 2.5 mi NNE 6.9 mph - N/A   Mostly Cloudy
7:52 AM 60.1 °F - 57.9 °F 93% 29.55 in 1.8 mi NE 4.6 mph - N/A   Mostly Cloudy
8:01 AM 60.8 °F - 59.0 °F 94% 29.65 in 3.0 mi NNW 4.6 mph - N/A   Mostly Cloudy
8:16 AM 60.8 °F - 59.0 °F 94% 29.65 in 2.0 mi North 5.8 mph - N/A   Overcast
8:20 AM 60.8 °F - 59.0 °F 94% 29.65 in 1.2 mi North 5.8 mph - N/A   Overcast
8:29 AM 60.8 °F - 59.0 °F 94% 29.64 in 0.5 mi North 8.1 mph - N/A Fog Fog
8:38 AM 60.8 °F - 59.0 °F 94% 29.64 in 1.5 mi North 8.1 mph - N/A   Overcast
8:45 AM 60.8 °F - 59.0 °F 94% 29.64 in 0.8 mi North 8.1 mph - N/A   Overcast
8:52 AM 61.0 °F - 59.0 °F 93% 29.58 in 0.5 mi NNW 8.1 mph - N/A Fog Fog
9:00 AM 62.6 °F - 59.0 °F 88% 29.66 in 1.5 mi NNW 6.9 mph - N/A   Overcast
9:10 AM 62.6 °F - 59.0 °F 88% 29.65 in 0.8 mi NNW 8.1 mph - N/A   Overcast
9:16 AM 62.6 °F - 59.0 °F 88% 29.66 in 1.8 mi NW 11.5 mph - N/A   Overcast
9:18 AM 62.6 °F - 59.0 °F 88% 29.66 in 3.0 mi NNW 9.2 mph - N/A   Overcast
9:52 AM 64.0 °F - 59.0 °F 84% 29.61 in 6.0 mi NNW 11.5 mph - N/A   Haze
10:43 AM 66.2 °F - 60.8 °F 83% 29.69 in 7.0 mi NNW 9.2 mph - N/A   Overcast
10:52 AM 66.9 °F - 61.0 °F 81% 29.63 in 7.0 mi North 5.8 mph - N/A   Overcast
11:52 AM 68.0 °F - 61.0 °F 78% 29.64 in 8.0 mi NW 9.2 mph - N/A   Overcast
12:15 PM 71.6 °F - 60.8 °F 69% 29.71 in 8.0 mi NW 6.9 mph - N/A   Overcast
12:44 PM 75.2 °F - 60.8 °F 61% 29.70 in 10.0 mi NW 6.9 mph - N/A   Mostly Cloudy
12:52 PM 75.0 °F - 61.0 °F 62% 29.62 in 10.0 mi NW 9.2 mph - N/A   Mostly Cloudy
1:05 PM 75.2 °F - 60.8 °F 61% 29.69 in 10.0 mi WNW 5.8 mph - N/A   Partly Cloudy
1:52 PM 78.1 °F - 61.0 °F 56% 29.59 in 10.0 mi Calm Calm - N/A   Clear
2:52 PM 84.9 °F 83.7 °F 55.9 °F 37% 29.58 in 10.0 mi SSW 10.4 mph 17.3 mph N/A   Clear
3:52 PM 91.0 °F 88.5 °F 53.1 °F 27% 29.54 in 10.0 mi SSW 11.5 mph 18.4 mph N/A   Clear
4:52 PM 89.1 °F - 48.9 °F 25% 29.53 in 10.0 mi South 17.3 mph - N/A   Clear
5:52 PM 84.0 °F - 34.0 °F 17% 29.50 in 6.0 mi South 23.0 mph 29.9 mph N/A   Haze
6:52 PM 82.0 °F - 33.1 °F 17% 29.50 in 10.0 mi South 11.5 mph - N/A   Clear
7:52 PM 79.0 °F - 41.0 °F 26% 29.51 in 10.0 mi SSE 16.1 mph 27.6 mph N/A   Clear
8:20 PM 71.6 °F - 48.2 °F 43% 29.64 in 4.0 mi SSE 36.8 mph 50.6 mph 0.00 in Rain , Thunderstorm Light Rain
8:35 PM 71.6 °F - 48.2 °F 43% 29.64 in 9.0 mi South 23.0 mph 42.6 mph 0.00 in   Partly Cloudy
8:52 PM 73.0 °F - 46.0 °F 38% 29.58 in 8.0 mi SSE 23.0 mph 44.9 mph 0.00 in   Scattered Clouds
9:52 PM 73.0 °F - 42.1 °F 33% 29.58 in 10.0 mi ESE 4.6 mph - 0.00 in   Clear
10:52 PM 70.0 °F - 48.0 °F 46% 29.63 in 10.0 mi South 13.8 mph 25.3 mph N/A   Clear
11:52 PM 70.0 °F - 55.9 °F 61% 29.59 in 10.0 mi SSE 24.2 mph 31.1 mph N/A   Clear